www.pogodaiklimat.ru
ПОГОДА в Пайшанбе

Архив погоды в Пайшанбе (Самаркандская область, Узбекистан)

Время
и дата
05:00 28.05
05:20 28.05
05:30 28.05
05:50 28.05
06:00 28.05
06:10 28.05
06:20 28.05
06:30 28.05
06:40 28.05
06:50 28.05
07:00 28.05
07:10 28.05
07:20 28.05
07:30 28.05
07:40 28.05
07:50 28.05
08:00 28.05
08:10 28.05
08:20 28.05
08:30 28.05
08:40 28.05
08:50 28.05
09:00 28.05
09:10 28.05
09:20 28.05
09:30 28.05
09:40 28.05
09:50 28.05
10:00 28.05
10:10 28.05
10:20 28.05
10:30 28.05
10:40 28.05
10:50 28.05
11:00 28.05
11:10 28.05
11:20 28.05
11:30 28.05
11:40 28.05
11:50 28.05
12:00 28.05
12:10 28.05
12:20 28.05
12:30 28.05
13:00 28.05
13:10 28.05
13:20 28.05
13:30 28.05
13:40 28.05
13:50 28.05
14:00 28.05
14:20 28.05
14:30 28.05
14:40 28.05
14:50 28.05
15:00 28.05
15:10 28.05
15:20 28.05
15:30 28.05
15:40 28.05
15:50 28.05
16:00 28.05
16:10 28.05
16:20 28.05
16:30 28.05
16:40 28.05
16:50 28.05
17:00 28.05
17:10 28.05
17:20 28.05
17:40 28.05
17:50 28.05
18:00 28.05
18:10 28.05
18:20 28.05
18:30 28.05
18:40 28.05
18:50 28.05
19:00 28.05
19:10 28.05
19:20 28.05
19:30 28.05
19:40 28.05
19:50 28.05
20:00 28.05
20:10 28.05
20:20 28.05
20:30 28.05
20:40 28.05
20:50 28.05
21:00 28.05
21:10 28.05
21:20 28.05
21:30 28.05
21:40 28.05
21:50 28.05
22:10 28.05
22:20 28.05
22:30 28.05
22:40 28.05
22:50 28.05
23:00 28.05
23:10 28.05
23:20 28.05
23:30 28.05
23:50 28.05
00:00 29.05
00:10 29.05
00:20 29.05
00:30 29.05
00:40 29.05
01:00 29.05
01:10 29.05
01:20 29.05
01:30 29.05
01:40 29.05
01:50 29.05
02:00 29.05
02:10 29.05
02:20 29.05
02:30 29.05
02:40 29.05
02:50 29.05
03:00 29.05
03:10 29.05
03:20 29.05
03:30 29.05
03:40 29.05
03:50 29.05
04:00 29.05
04:10 29.05
04:20 29.05
04:30 29.05
04:40 29.05
04:50 29.05
05:00 29.05
05:10 29.05
05:20 29.05
05:30 29.05
05:40 29.05
05:50 29.05
06:00 29.05
06:10 29.05
06:20 29.05
Ветер
(напр.,м/с)
Видимость Явления Солнечная радиация
(Вт/м2)
Т
(С)
Тd
(С)
f
(%)
Тe
(С)
Тes
(С)
Комфортность P
(гПа)
Po
(гПа)
Тmin
(С)
Tmax
(С)
R
(мм)
В 1.8
{2.3}
+13.6 +13.6 100 +13 +13 1013.9 959.6 +13.7 +13.6
В 1.7
{2.1}
3.9 +13.3 +13.3 100 +13 +13 1014.0 959.7 +13.4 +13.2
В 1.9
{2.3}
11.4 +12.9 +12.9 100 +12 +12 1014.1 959.8 +13.3 +12.9
СВ 1.1
{2.0}
37.5 +13.6 +13.6 100 +14 +15 1014.3 960.0 +13.6 +13.2
СВ 1.3
{2.1}
35.8 +13.8 +13.8 100 +14 +15 1014.4 960.1 +13.8 +13.6
СВ 1.7
{2.5}
62.5 +14.0 +14.0 100 +14 +15 1014.3 960.0 +14.0 +13.8
В 2.1
{3.2}
99.0 +14.7 +14.7 100 +14 +16 1014.2 959.9 +14.7 +14.0
СВ 1.9
{2.9}
119.8 +15.4 +15.4 100 +15 +18 1014.3 960.0 +15.4 +14.7
СВ 1.8
{3.1}
102.1 +15.7 +15.7 100 +16 +18 1014.4 960.1 +15.7 +15.4
СВ 1.2
{2.1}
165.3 +16.4 +16.4 100 +17 +21 1014.6 960.3 +16.4 +15.7
СВ 1.2
{2.4}
168.2 +17.3 +15.5 89 +18 +22 1014.7 960.4 +17.3 +16.4
СВ 1.5
{2.7}
174.7 +17.9 +14.2 79 +19 +23 1014.7 960.4 +17.9 +17.3
СВ 1.1
{1.8}
197.3 +18.2 +13.0 72 +19 +23 1014.8 960.5 +18.2 +17.9
В 1.7
{3.0}
267.0 +18.5 +12.2 66 +20 +26 1014.8 960.5 +18.5 +18.2
СВ 1.5
{2.5}
312.8 +19.2 +12.7 66 +21 +28 комфорт 1014.8 960.5 +19.1 +18.5
СВ 1.4
{2.6}
346.9 +19.9 +12.1 61 +22 +30 комфорт 1015.0 960.7 +19.9 +19.2
СВ 1.7
{2.8}
376.0 +20.4 +11.2 55 +23 +31 комфорт 1015.0 960.7 +20.4 +19.9
СВ 1.4
{2.7}
406.9 +21.0 +11.1 53 +24 +33 комфорт 1015.1 960.8 +20.9 +20.4
СВ 1.7
{3.2}
436.7 +21.8 +10.0 47 +23 +32 комфорт 1015.1 960.8 +21.8 +21.0
СВ 2.7
{4.3}
468.5 +22.3 +9.0 42 +24 +33 комфорт 1015.0 960.7 +22.3 +21.7
В 3.1
{4.9}
501.7 +22.7 +7.7 38 +24 +33 комфорт 1014.9 960.6 +22.7 +22.3
В 2.8
{4.6}
528.5 +23.4 +8.1 38 +25 +35 комфорт 1015.0 960.7 +23.4 +22.7
СВ 2.4
{4.0}
554.4 +23.9 +7.1 34 +24 +35 комфорт 1015.0 960.7 +23.9 +23.4
СВ 2.2
{4.1}
582.3 +24.7 +8.4 35 +25 +37 комфорт 1014.9 960.6 +24.7 +23.9
СВ 1.7
{3.0}
604.0 +25.1 +6.5 30 +25 +38 комфорт 1015.1 960.8 +25.1 +24.7
СВ 1.7
{3.3}
538.0 +25.6 +7.4 31 +26 +38 жарко 1015.1 960.8 +25.9 +25.1
СВ 1.8
{3.7}
652.2 +26.0 +6.7 29 +26 +40 жарко 1015.0 960.7 +26.0 +25.5
С 1.6
{3.6}
678.2 +26.4 +7.6 30 +26 +41 жарко 1015.0 960.7 +26.5 +26.0
СВ 2.6
{4.8}
702.7 +27.1 +7.3 29 +27 +41 жарко 1015.0 960.7 +27.2 +26.4
СВ 2.5
{5.0}
723.7 +27.5 +5.1 24 +26 +40 жарко 1015.1 960.8 +27.5 +27.1
СВ 2.3
{5.8}
741.8 +27.6 +8.7 30 +27 +42 жарко 1015.2 960.9 +28.0 +27.5
С 2.5
{5.4}
756.6 +27.5 +6.0 25 +27 +42 жарко 1015.2 960.9 +27.6 +27.2
СВ 2.4
{5.1}
772.7 +27.9 +4.2 22 +26 +41 жарко 1015.3 961.0 +28.0 +27.4
СВ 2.3
{5.3}
791.1 +28.2 +5.8 24 +27 +43 жарко 1015.3 961.0 +28.2 +27.8
В 3.7
{6.6}
811.6 +28.5 +4.4 21 +27 +41 жарко 1015.2 960.9 +28.5 +28.2
СВ 3.1
{5.2}
819.9 +28.9 +2.8 19 +27 +42 жарко 1015.1 960.8 +29.0 +28.5
СВ 3.3
{6.8}
834.9 +29.2 +4.8 21 +28 +43 жарко 1015.2 960.9 +29.1 +28.8
В 4.1
{7.6}
840.5 +28.8 +2.3 18 +27 +41 жарко 1015.2 960.9 +29.3 +28.7
СВ 3.8
{6.2}
847.7 +29.4 +5.6 22 +28 +42 жарко 1015.2 960.9 +29.4 +28.7
В 3.2
{5.4}
856.4 +29.4 +4.0 20 +28 +44 жарко 1015.2 960.9 +29.5 +29.0
В 3.7
{6.2}
867.6 +29.0 +3.2 19 +27 +42 жарко 1015.3 961.0 +29.5 +28.9
В 2.4
{5.4}
870.1 +29.1 +4.9 21 +27 +44 жарко 1015.2 960.9 +29.3 +29.0
В 2.9
{5.4}
876.1 +29.6 +3.5 19 +28 +45 жарко 1015.3 961.0 +29.7 +29.1
СВ 1.7
{4.4}
870.4 +29.6 +6.2 23 +28 +47 жарко 1015.3 961.0 +29.7 +29.4
С 2.9
{5.2}
854.0 +28.9 +7.6 26 +28 +44 жарко 1015.1 960.8 +29.6 +28.9
СЗ 2.2
{4.1}
855.1 +28.9 +5.3 22 +27 +44 жарко 1015.1 960.8 +29.1 +28.8
СВ 2.3
{4.4}
852.5 +29.9 +3.8 19 +28 +45 жарко 1015.1 960.8 +29.9 +28.9
СВ 2.4
{7.0}
847.1 +30.0 +5.6 21 +28 +45 жарко 1015.0 960.7 +30.1 +29.7
СВ 3.0
{6.4}
839.8 +29.7 +3.7 19 +28 +44 жарко 1015.0 960.7 +30.1 +29.5
В 3.1
{6.0}
803.3 +29.9 +5.2 21 +28 +43 жарко 1015.0 960.7 +29.9 +29.7
В 3.7
{9.5}
813.6 +29.5 +3.9 20 +28 +42 жарко 1015.0 960.7 +30.2 +29.5
В 3.8
{6.4}
787.0 +29.6 +2.5 18 +27 +40 жарко 1015.0 960.7 +30.0 +29.4
СВ 3.2
{6.3}
769.7 +30.3 +4.2 19 +28 +42 жарко 1015.0 960.7 +30.3 +29.6
В 3.0
{6.0}
753.5 +29.9 +3.0 18 +28 +42 жарко 1014.9 960.6 +30.3 +29.6
СВ 3.7
{6.2}
738.3 +30.0 +5.1 21 +28 +41 жарко 1014.9 960.6 +30.2 +29.8
В 3.6
{5.7}
719.3 +29.6 +4.6 20 +28 +41 жарко 1014.8 960.5 +30.1 +29.6
В 4.3
{7.8}
698.3 +29.7 +3.1 18 +28 +39 жарко 1014.8 960.5 +29.8 +29.6
В 4.4
{7.4}
679.5 +29.2 +4.5 21 +28 +39 жарко 1014.8 960.5 +29.7 +29.2
В 3.7
{7.1}
659.4 +29.6 +4.9 21 +28 +39 жарко 1014.8 960.5 +29.8 +29.2
В 4.6
{7.4}
639.5 +29.5 +3.2 19 +27 +37 жарко 1014.8 960.5 +29.6 +29.3
В 4.1
{7.0}
618.2 +29.3 +2.2 18 +27 +37 жарко 1014.7 960.4 +29.5 +29.3
В 4.2
{6.6}
595.7 +29.1 +2.6 18 +27 +37 жарко 1014.7 960.4 +29.3 +29.1
В 4.1
{6.5}
571.7 +29.5 +3.3 19 +27 +36 жарко 1014.7 960.4 +29.5 +29.0
В 5.0
{8.6}
547.6 +29.6 +3.8 19 +28 +36 жарко 1014.7 960.4 +29.6 +29.3
В 5.6
{9.0}
521.2 +29.4 +3.5 19 +27 +34 жарко 1014.8 960.5 +29.6 +29.4
В 5.6
{8.3}
493.1 +29.3 +2.9 18 +27 +34 жарко 1014.8 960.5 +29.5 +29.3
В 3.9
{6.9}
461.5 +29.3 +2.8 18 +27 +35 жарко 1014.7 960.4 +29.3 +29.1
СВ 4.9
{6.8}
434.8 +29.2 +4.3 20 +27 +33 жарко 1014.7 960.4 +29.3 +29.1
СВ 4.8
{7.1}
403.0 +29.0 +3.1 19 +27 +33 жарко 1014.7 960.4 +29.2 +29.0
СВ 4.4
{6.5}
375.1 +29.0 +3.4 19 +27 +33 жарко 1014.7 960.4 +29.0 +28.9
СВ 5.0
{7.9}
321.2 +28.5 +2.8 19 +27 +32 жарко 1014.7 960.4 +28.8 +28.5
В 5.0
{6.8}
292.4 +28.3 +2.7 19 +26 +30 жарко 1014.7 960.4 +28.5 +28.3
В 4.8
{7.1}
263.9 +28.1 +2.3 19 +26 +30 жарко 1014.8 960.5 +28.3 +28.1
СВ 4.1
{5.8}
235.4 +27.8 +3.9 22 +26 +30 жарко 1014.8 960.5 +28.1 +27.8
В 4.3
{6.3}
205.8 +27.6 +4.0 22 +26 +29 жарко 1014.7 960.4 +27.8 +27.6
В 4.8
{7.9}
176.8 +27.2 +3.6 22 +26 +29 жарко 1014.8 960.5 +27.6 +27.2
В 4.4
{7.1}
149.5 +26.9 +4.0 23 +26 +28 жарко 1014.9 960.6 +27.2 +26.9
В 4.4
{6.7}
122.4 +26.5 +3.5 23 +25 +27 комфорт 1015.0 960.7 +26.9 +26.5
В 4.0
{6.7}
97.9 +26.2 +3.9 24 +25 +27 комфорт 1015.1 960.8 +26.5 +26.2
В 4.1
{6.3}
74.6 +25.8 +3.3 23 +25 +26 комфорт 1015.1 960.8 +26.2 +25.8
В 3.8
{5.8}
53.4 +25.4 +3.2 24 +24 +25 комфорт 1015.2 960.9 +25.8 +25.4
В 3.2
{4.9}
34.5 +24.8 +4.0 26 +24 +25 комфорт 1015.2 960.9 +25.4 +24.9
В 2.8
{3.9}
18.7 +24.2 +4.2 27 +24 +24 комфорт 1015.3 961.0 +24.8 +24.2
СВ 2.2
{3.5}
6.6 +23.6 +4.7 29 +23 +23 комфорт 1015.4 961.1 +24.2 +23.6
СВ 2.0
{3.2}
0.6 +22.7 +5.5 33 +23 +23 комфорт 1015.6 961.2 +23.6 +22.7
СВ 2.4
{4.0}
+22.2 +4.6 32 +22 +22 комфорт 1015.7 961.3 +22.7 +22.2
СВ 2.2
{3.7}
+21.6 +4.9 34 +22 +22 комфорт 1015.7 961.3 +22.2 +21.6
СВ 2.3
{3.6}
+21.2 +5.1 35 +22 +22 комфорт 1015.7 961.3 +21.6 +21.3
СВ 2.5
{3.9}
+20.9 +5.1 35 +22 +22 комфорт 1015.7 961.3 +21.2 +20.9
СВ 2.2
{3.6}
+20.8 +4.6 34 +22 +22 комфорт 1015.8 961.4 +20.9 +20.8
СВ 2.4
{3.9}
+20.6 +4.3 34 +22 +22 комфорт 1015.9 961.5 +20.8 +20.6
СВ 2.3
{3.7}
+20.6 +4.4 34 +22 +22 комфорт 1016.0 961.6 +20.7 +20.6
СВ 1.9
{3.1}
+20.2 +4.5 36 +21 +21 комфорт 1016.0 961.6 +20.6 +20.2
В 1.8
{2.5}
+20.0 +4.7 36 +21 +21 комфорт 1016.0 961.6 +20.3 +20.0
СВ 1.7
{2.8}
+19.7 +4.4 36 +21 +21 комфорт 1016.0 961.6 +20.0 +19.7
СВ 2.0
{2.8}
+19.4 +4.5 37 +20 +20 1016.0 961.6 +19.7 +19.4
В 2.7
{3.4}
+18.7 +5.2 41 +19 +19 1015.9 961.5 +19.1 +18.7
В 2.6
{3.6}
+18.3 +5.4 43 +19 +19 1015.9 961.5 +18.8 +18.3
В 2.9
{4.4}
+18.3 +5.9 44 +19 +19 1015.8 961.4 +18.3 +18.3
В 2.8
{4.1}
+18.3 +5.6 43 +19 +19 1015.7 961.3 +18.4 +18.3
В 2.5
{3.7}
+18.2 +5.5 43 +19 +19 1015.7 961.3 +18.4 +18.2
В 2.3
{3.3}
+18.0 +5.2 43 +18 +18 1015.6 961.2 +18.2 +18.0
В 2.0
{2.8}
+18.0 +5.2 43 +19 +19 1015.6 961.2 +18.0 +18.0
В 1.7
{2.4}
+18.0 +5.0 42 +19 +19 1015.7 961.3 +18.1 +18.0
В 1.5
{2.1}
+18.1 +5.0 42 +19 +19 1015.7 961.3 +18.1 +18.0
ЮВ 1.2
{2.1}
+17.1 +6.0 48 +18 +18 1015.9 961.5 +17.8 +17.0
ЮВ 2.0
{3.6}
+16.8 +6.9 52 +17 +17 1016.0 961.6 +17.1 +16.8
ЮВ 2.0
{3.5}
+16.5 +6.5 51 +17 +17 1016.0 961.6 +16.8 +16.5
В 1.4
{2.5}
+16.4 +6.6 52 +17 +17 1016.0 961.6 +16.6 +16.4
ЮВ 1.0
{1.5}
+15.9 +6.6 54 +17 +17 1016.0 961.6 +16.4 +15.9
ЮВ 1.2
{1.9}
+15.8 +6.4 54 +16 +16 1016.1 961.7 +15.9 +15.8
ЮВ 1.6
{2.4}
+16.3 +5.8 50 +17 +17 1016.0 961.6 +16.3 +15.6
ЮВ 1.9
{2.6}
+16.8 +4.9 45 +17 +17 1016.0 961.6 +16.7 +16.3
ЮВ 0.9
{1.7}
+14.5 +7.3 62 +15 +15 1015.9 961.5 +16.8 +14.5
ЮВ 1.6
{2.7}
+15.4 +6.0 53 +16 +16 1015.9 961.5 +15.4 +14.4
ЮВ 1.5
{2.6}
+16.0 +6.3 53 +16 +16 1015.9 961.5 +16.0 +15.4
ЮВ 1.2
{2.0}
+15.9 +5.9 52 +17 +17 1015.9 961.5 +16.0 +15.8
ЮВ 0.8
{1.7}
+13.6 +8.2 70 +14 +14 1015.9 961.5 +15.9 +13.6
ЮВ 0.9
{2.3}
+14.0 +6.8 62 +15 +15 1015.9 961.5 +14.0 +13.6
Ю 0.9
{1.9}
+13.9 +7.7 66 +14 +14 1015.9 961.5 +14.1 +13.9
ЮЗ 0.9
{1.6}
+12.9 +10.0 83 +13 +13 1015.9 961.5 +13.9 +12.9
Ю 0.5
{1.6}
+12.5 +11.4 93 +13 +13 1015.8 961.4 +12.9 +12.4
Ю 0.4
{0.8}
+12.3 +11.3 94 +13 +13 1015.8 961.4 +12.6 +12.3
ЮЗ 1.2
{3.0}
+12.3 +12.3 100 +12 +12 1015.9 961.5 +12.3 +11.5
ЮВ 2.5
{3.7}
+14.5 +8.2 66 +14 +14 1015.8 961.4 +14.5 +12.3
В 0.6
{1.5}
+12.6 +10.6 88 +13 +13 1015.8 961.4 +14.5 +12.5
В 1.0
{1.9}
+13.6 +7.7 67 +14 +14 1015.9 961.5 +13.6 +12.6
В 0.8
{1.7}
+12.7 +10.1 84 +13 +13 1016.0 961.6 +13.6 +12.7
ЮЗ 1.3
{2.5}
+12.6 +8.8 78 +12 +12 1016.1 961.7 +12.7 +12.0
ЮВ 0.8
{2.8}
+12.6 +8.6 77 +13 +13 1016.0 961.6 +12.8 +12.5
С 0.3
{0.8}
+12.0 +9.8 86 +13 +13 1016.1 961.7 +12.6 +12.0
Ю 0.3
{0.6}
+12.1 +8.7 80 +13 +13 1016.1 961.7 +12.1 +11.9
С 0.4
{1.7}
+11.4 +10.8 96 +12 +12 1016.1 961.7 +12.1 +11.4
В 1.6
{2.8}
+13.0 +6.9 66 +13 +13 1016.0 961.6 +13.1 +11.4
В 1.4
{2.2}
+13.2 +6.9 66 +13 +13 1016.0 961.6 +13.2 +12.8
В 1.6
{2.2}
+13.4 +6.9 65 +13 +13 1016.1 961.7 +13.4 +13.2
СВ 1.1
{1.8}
0.2 +11.9 +8.5 79 +12 +12 1016.2 961.8 +13.4 +11.9
СВ 1.4
{1.8}
3.6 +12.1 +7.8 75 +12 +12 1016.2 961.8 +12.1 +11.9
СВ 1.9
{3.0}
12.9 +12.4 +7.5 72 +12 +12 1016.2 961.8 +12.4 +12.1
СВ 2.0
{3.2}
28.9 +12.8 +7.5 70 +12 +13 1016.2 961.8 +12.8 +12.4
С 1.8
{2.6}
46.5 +13.2 +8.5 73 +13 +14 1016.2 961.8 +13.2 +12.8
СВ 2.0
{3.2}
66.5 +13.9 +8.0 68 +13 +14 1016.2 961.8 +13.9 +13.2
СВ 2.3
{3.4}
89.2 +14.3 +7.0 61 +14 +16 1016.2 961.8 +14.3 +13.9
СВ 2.3
{3.8}
114.0 +14.8 +7.2 60 +14 +16 1016.2 961.8 +14.8 +14.3
Местоположение метеостанции Пайшанба (Самаркандская область, Узбекистан): широта 40.03 долгота 66.22 высота над уровнем моря 0 м.
В архиве по умолчанию представлена погода в Пайшанбе за последние 1-2 суток. Обновление информации о фактической погоде в базе происходит ежечасно! Архивные данные за месяц целиком и за предыдущие месяцы Вы можете получить, выбрав интересующий диапазон дат из раскрывающегося списка и нажав кнопку "Ввод!".
*Определитесь, кто Вы:
Внимание! Время в таблицах - местное (без учета летнего времени). Для получения всемирного времени необходимо вычесть поправку, которая равна 5 ч.
Смотрите также архив погоды на ближайших метеорологических станциях:
Партнеры нашего сайта:      
Пояснения к столбцам:
  • Ветер - указаны скорость ветра в м/с - средняя за 10 мин, порывы в срок и между сроками (в фигурных скобках) и направление, откуда дует ветер: С - северный,
  • СВ - северо-восточный, В - восточный, ЮВ - юго-восточный, Ю - южный, ЮЗ - юго-западный, З - западный, СЗ - северо-западный.
  • Видимость - горизонтальная дальность видимости в метрах или километрах. При видимости от 1 до 10 км при отсутствии осадков обычно наблюдается дымка, при ухудшении видимости до 1 км и менее - туман. В сухую погоду видимость может ухудшаться дымом, пылью или мглою.
  • Явления - указаны атмосферные явления, наблюдавшиеся в срок или в последний час перед сроком.
  • Солнечная радиация - мощность потока солнечного излучения на поверхность земли и предметов в Вт/м2.
  • T - Температура воздуха - температура, измеренная на высоте 2 м над землей.
  • Td - Температура точки росы - температура, при понижении до которой содержащийся в воздухе водяной пар достигнет насыщения.
  • f - Относительная влажность воздуха - влажноcть воздуха, измеренная на высоте 2 м над землей.
  • Te - Эффективная температура - температура, которую ощущает одетый по сезону человек в тени. Характеристика душности погоды. При расчете учитывается влияние влажности воздуха и скорости ветра на теплоощущения человека.
  • Tes - Эффективная температура на солнце - температура, которую ощущает человек, с поправкой на солнечный нагрев. Характеристика знойности погоды. Зависит от высоты солнца над горизонтом, облачности и скорости ветра. Ночью, в пасмурную погоду, а также при ветре 12 м/с и более поправка равна нулю.
  • P - Атмосферное давление - приведенное к уровню моря атмосферное давление.
  • Po - Атмосферное давление - измеренное на уровне метеостанции атмосферное давление.
  • Tmin - Минимальная температура - минимум температуры воздуха на высоте 2 м над землей.
  • Tmax - Максимальная температура - максимум температуры воздуха на высоте 2 м над землей.
  • R - Количество осадков - Количество выпавших осадков за период времени, мм. При наведении курсора мыши на число - период времени, за который выпало указанное количество осадков.